Regional Weather Roundup
Issued by NWS Mobile, AL

Home | Current Version | Previous Version | Text Only | Print | Product List | Glossary On
Versions: 1 2 3 4 5 6 7 8 9 10 11 12 13 14 15 16 17 18 19 20 21 22 23 24 25 26 27 28 29 30 31 32 33 34 35 36 37 38 39 40 41 42 43 44 45 46 47 48 49 50
481
ASUS44 KMOB 241012
RWRMOB
REGIONAL WEATHER ROUNDUP
NATIONAL WEATHER SERVICE MOBILE AL
500 AM CDT TUE MAY 24 2016

NOTE: "FAIR" INDICATES FEW OR NO CLOUDS BELOW 12,000 FEET WITH NO
      SIGNIFICANT WEATHER AND/OR OBSTRUCTIONS TO VISIBILITY.

  * THESE STATIONS ARE PART OF THE UNIVERSITY OF SOUTH ALABAMA
    MESONET AND ARE NOT UNDER NWS OR FAA QUALITY CONTROL.

ALZ061>064-241100-
COASTAL ALABAMA

CITY           SKY/WX    TMP DP  RH WIND       PRES   REMARKS
MOBILE REG APT CLEAR     61  60  97 CALM      30.05R
BROOKLEY FIELD CLEAR     62  61  96 NW3       30.06R
USA CAMPUS*    NOT AVBL
DOG RIVER*     NOT AVBL


CITY           SKY/WX    TMP DP  RH WIND       PRES   REMARKS
MOUNT VERNON*  NOT AVBL
SARALAND*      NOT AVBL
BAY MINETTE*   NOT AVBL
LOXLEY*        NOT AVBL
ROBERTSDALE*   NOT AVBL
FAIRHOPE*      NOT AVBL
ELBERTA*       NOT AVBL
FOLEY*         NOT AVBL
GRAND BAY*     NOT AVBL
DAUPHIN ISLND* NOT AVBL
BON SCOUR NWR* NOT AVBL
GULF SHORES      N/A     58  58 100 CALM      30.04R FOG

$$

ALZ051>060-241100-
INTERIOR SOUTHWEST AND SOUTH CENTRAL ALABAMA

CITY           SKY/WX    TMP DP  RH WIND       PRES   REMARKS
GREENVILLE     CLOUDY    58  54  86 CALM      30.05R
EVERGREEN      CLOUDY    58  57  97 CALM      30.06R
CASTLEBERRY*   NOT AVBL
ATMORE*        NOT AVBL
DIXIE*         NOT AVBL
ANDALUSIA/OPP  PTCLDY    62  58  86 CALM      30.05R
ANDALUSIA*     NOT AVBL
FLORALA APT    PTCLDY    57  55  93 CALM      30.07R
FLORALA*       NOT AVBL

$$

FLZ001>006-241100-
WESTERN FLORIDA PANHANDLE

CITY           SKY/WX    TMP DP  RH WIND       PRES   REMARKS
PENSACOLA      CLEAR     64  58  80 N3        30.04R
NAS PENSACOLA  NOT AVBL
MILTON         PTCLDY    57  57 100 N3        30.05R
WHTNG S FIELD  CLEAR     58  56  93 NW3       30.05R


CITY           SKY/WX    TMP DP  RH WIND       PRES   REMARKS
WALNUT HILL*   NOT AVBL
JAY*           NOT AVBL
DUKE FIELD     PTCLDY    56  54  92 CALM      30.04R
CRESTVIEW      PTCLDY    56  54  93 CALM      30.07R
VALPARAISO     PTCLDY    62  56  82 CALM      30.04R
DESTIN         CLEAR     69  65  86 N3        30.04R

$$

MSZ076-079-241100-
INTERIOR SOUTHEAST MISSISSIPPI

CITY           SKY/WX    TMP DP  RH WIND       PRES   REMARKS
LEAKESVILLE*   NOT AVBL
AGRICOLA*      NOT AVBL

$$

MARINE OBSERVATIONS

STATION/POSITION TIME  TEMP    WIND        PRES    WAVE
                       AIR SEA DIR/SP/G            HT/PER
                 (UTC) (F)     (DEG/KT/KT) (MB)    (FT/S)
PASCAGOULA       0900   69      30/  2/  2 1016.2R
PETIT BOIS ISLND 0900   76     180/  5/  6 1017.0R
GRAND BAY        0800   67     360/  4     1018.0S
KATRINA CUT      0900   76     200/  4     1017.3R
CEDAR POINT      0900   75     190/  4     1016.6R
E DAUPHIN ISLAND 0900   76     190/  3/  5 1016.5R
MIDDLE BAY LIGHT 0900   75     280/  2     1016.9R
USCG MOBILE BAY  0900   67 78   CALM  /  2 1017.3R
STATE DOCKS      0900   69                 1016.7R
MEAHER PARK      0900   66      10/  1     1016.6R
WEEKS BAY        0800   61                   N/A
FORT MORGAN      0900   76     200/  5/  5 1016.2R
12 S ORANGE BCH  0950   76 78  180/  4/  6 1016.7R   1
PENSACOLA BAY    0900      79  360/  1/  2 1016.9R
64 S DAUPHIN ISL 0900   76 77  130/  8/ 10 1016.3R

$$

SELECTED LOCATIONS ACROSS THE REGION

CITY           SKY/WX    TMP DP  RH WIND       PRES   REMARKS
NEW ORLEANS    PTCLDY    70  64  81 SE5       30.00S
GULFPORT       PTCLDY    63  60  90 CALM      30.01S
PASCAGOULA AP  CLEAR     57  57 100 CALM      30.03R FOG
PASCAGOULA*    NOT AVBL
HATTIESBURG    CLEAR     61  57  87 CALM      30.05R
LAUREL         CLEAR     57  54  88 CALM      30.06R
MERIDIAN       PTCLDY    58  56  93 CALM      30.05R
JACKSON        CLEAR     63  58  83 SE3       30.03R
MONTGOMERY     CLEAR     61  56  83 CALM      30.06R
TROY           CLEAR     57  55  93 CALM      30.06R
KINSTON*       NOT AVBL
GENEVA*        NOT AVBL
ASHFORD*       NOT AVBL
DOTHAN         CLEAR     61  58  90 CALM      30.08R
PANAMA CITY    CLEAR     58  56  93 NW3       30.03R

$$





USA.gov is the U.S. government's official web portal to all federal, state and local government web resources and services.